This demonstration page uses our WeatherBlox Daily Observations layout. Learn more.

Left ArrowRight Arrow

Hourly Observations for June 29, 2018

Temp ( °F °C ) Dew Point ( °F °C ) Humidity (%) Winds ( mph kmh ) Pressure ( in mb ) Visibility ( mi km ) Precip ( " mm )
12:53 am 00:53 Cloudy 63 17.2 46 7.8 54 54 NNE 6 9 29.72 1006 10 16 0.00 0.00
1:53 am 01:53 Cloudy with Light Rain 61 16.1 50 10 67 67 Calm 29.75 1008 10 16 0.00 0.03
2:53 am 02:53 Cloudy with Light Rain 58 14.4 51 10.6 78 78 N 12 19 29.77 1008 10 16 0.00 0.03
3:53 am 03:53 Cloudy with Rain 57 13.9 55 12.8 93 93 E 8 13 29.77 1008 4 6 0.15 3.81
4:53 am 04:53 Cloudy with Light Rain 56 13.3 55 12.8 97 97 W 5 7 29.81 1010 6 10 0.09 2.29
5:53 am 05:53 Cloudy with Light Rain 55 12.8 54 12.2 96 96 WSW 3 6 29.82 1010 8 13 0.13 3.30
6:53 am 06:53 Cloudy 56 13.3 54 12.2 93 93 ESE 5 7 29.82 1010 10 16 0.00 0.03
7:53 am 07:53 Cloudy 57 13.9 55 12.8 93 93 S 3 6 29.82 1010 10 16 0.00 0.00
8:53 am 08:53 Mostly Sunny 59 15 55 12.8 87 87 WSW 10 17 29.84 1010 10 16 0.00 0.00
9:53 am 09:53 Mostly Sunny 63 17.2 55 12.8 76 76 WSW 9 15 29.83 1010 10 16 0.00 0.00
10:53 am 10:53 Sunny 68 20 50 10 53 53 WNW 10 17 29.83 1010 10 16 0.00 0.00
11:53 am 11:53 Cloudy 71 21.7 49 9.4 46 46 WNW 5 7 29.82 1010 10 16 0.00 0.00
12:53 pm 12:53 Cloudy 69 20.6 48 8.9 47 47 SW 7 11 29.82 1010 10 16 0.00 0.00
1:36 pm 13:36 Cloudy with Nearby Thunderstorms 62 16.7 48 8.9 60 60 NW 23 37 29.80 1009 10 16 0.00 0.00
1:44 pm 13:44 Cloudy with Strong Thunderstorms 57 14 52 11 82 82 NW 16 26 29.80 1009 4 6 0.00 0.00
1:53 pm 13:53 Cloudy with Nearby Thunderstorms 57 13.9 51 10.6 81 81 NNW 12 19 29.86 1011 5 8 0.06 1.52
2:03 pm 14:03 Cloudy with Light Rain 59 15 51 10.6 75 75 NNE 6 9 29.83 1010 10 16 0.00 0.03
2:53 pm 14:53 Sunny 66 18.9 51 10.6 59 59 Calm 29.83 1010 10 16 0.00 0.03
3:53 pm 15:53 Sunny 70 21.1 48 8.9 46 46 E 6 9 29.82 1010 10 16 0.00 0.00
4:37 pm 16:37 Mostly Cloudy with Nearby Thunderstorms 63 17.2 49 9.4 60 60 W 22 35 29.83 1010 10 16 0.00 0.00
4:46 pm 16:46 Partly Cloudy 63 17 48 9 59 59 W 18 30 29.83 1010 10 16 0.00 0.00
4:53 pm 16:53 Mostly Sunny 62 16.7 48 8.9 60 60 W 17 28 29.86 1011 10 16 0.00 0.00
5:53 pm 17:53 Mostly Cloudy 62 16.7 50 10 65 65 W 7 11 29.85 1011 10 16 0.00 0.00
6:53 pm 18:53 Cloudy 62 16.7 50 10 65 65 S 5 7 29.88 1012 10 16 0.00 0.00
7:53 pm 19:53 Mostly Sunny 64 17.8 50 10 60 60 ESE 5 7 29.87 1012 10 16 0.00 0.00
8:53 pm 20:53 Sunny 62 16.7 53 11.7 73 73 SSW 6 9 29.88 1012 10 16 0.00 0.00
9:53 pm 21:53 Mostly Cloudy 59 15 54 12.2 83 83 SSW 6 9 29.90 1012 10 16 0.00 0.00
10:53 pm 22:53 Cloudy 58 14.4 53 11.7 84 84 SW 6 9 29.90 1013 10 16 0.00 0.00
11:53 pm 23:53 Clear 55 12.8 51 10.6 87 87 SW 12 19 29.91 1013 10 16 0.00 0.00

Powered by AerisWeather